Flag for Canada Weather past 2 weeks in Oshawa, Ontario, Canada

Now
64 °F

Fog.


Feels Like: 64 °F
Forecast: 63 / 81 °F
Wind: 5 mph from West

Location: Toronto Buttonville

Current Time: Sep 1, 2015 at 8:52:16 AM

Latest Report: Sep 1, 2015 at 8:00 AM


Visibility: 3 mi

Pressure: 30.08 "Hg

Humidity: 94%

Dew point: 63 °F

Location of OshawaLocation

Historic Weather in Oshawa — Graph

°F

Oshawa temperature yesterday

Maximum temperature yesterday: 84 °F (at 4:00 PM)
Minimum temperature yesterday: 63 °F (at 4:00 AM)
Average temperature yesterday: 73 °F

Past Weeks' High & Low Weather Summary

 TemperatureHumidityPressure
High90 °F (Aug 17, 2:00 PM)100% (Aug 29, 6:00 AM)30.23 "Hg (Aug 29, 6:00 AM)
Low50 °F (Aug 28, 5:00 AM)36% (Aug 22, 3:00 PM)29.71 "Hg (Aug 20, 7:00 AM)
Average68 °F74%30.00 "Hg
* Reported Aug 17 7:00 AM — Sep 1 7:48 AM, Oshawa, Weather by CustomWeather, © 2015

Note: Actual official high and low records may vary slightly from our data, if they occured in-between our weather recording intervals... More about our weather records

Advertising

Oshawa weather history for previous 24 hours

 ConditionsComfort  
Time TempWeatherWind HumidityBarometerVisibility
7:48 AM
Tue, Sep 1
64 °FFog.5 mph94%30.08 "Hg5 mi
7:00 AM64 °FFog.3 mph94%30.07 "Hg6 mi
6:00 AM64 °FPassing clouds.2 mph94%30.06 "Hg8 mi
5:00 AM66 °FLow clouds.3 mph88%30.06 "Hg8 mi
4:00 AM66 °FLow clouds.3 mph94%30.06 "Hg8 mi
3:00 AM66 °FLow clouds.5 mph94%30.06 "Hg7 mi
2:54 AM66 °FFog.5 mph94%30.05 "Hg6 mi
2:00 AM66 °FFog.6 mph94%30.05 "Hg2 mi
1:00 AM66 °FLow clouds.6 mph94%30.05 "Hg8 mi
12:46 AM66 °FPassing clouds.8 mph94%30.05 "Hg8 mi
11:00 PM
Mon, Aug 31
68 °FClear.6 mph88%30.04 "Hg12 mi
10:00 PM72 °FClear.7 mph78%30.03 "Hg12 mi
9:00 PM75 °FClear.9 mph74%30.02 "Hg12 mi
8:00 PM77 °FPassing clouds.8 mph74%30.01 "Hg12 mi
7:00 PM82 °FOvercast.6 mph55%29.99 "Hg12 mi
6:00 PM84 °FMore clouds than sun.9 mph51%29.99 "Hg12 mi
5:00 PM84 °FBroken clouds.7 mph51%29.99 "Hg12 mi
4:00 PM84 °FBroken clouds.7 mph51%29.99 "Hg12 mi
3:00 PM82 °FBroken clouds.5 mph55%30.00 "Hg12 mi
2:00 PM82 °FBroken clouds.3 mph55%30.01 "Hg12 mi
1:00 PM81 °FPassing clouds.8 mph58%30.02 "Hg12 mi
12:00 PM77 °FScattered clouds.10 mph65%30.03 "Hg12 mi
11:00 AM75 °FScattered clouds.8 mph74%30.04 "Hg12 mi
10:00 AM73 °FPassing clouds.8 mph78%30.03 "Hg10 mi
9:00 AM72 °FSunny.5 mph83%30.02 "Hg9 mi
8:00 AM68 °FSunny.5 mph88%30.01 "Hg8 mi
Weather by CustomWeather, © 2015

See weather overviewHow to use our weather pages